,,,PA_Meas_PMT16A,,PR_Meas_QMR101_102,,RH_Meas_QMH101,,SR_Meas_QMS101,,TA_Meas_QMH101,,GenWind,,GenWind,
date,time,status,PA,status,PR,status,RH,status,SR,status,TA,status,DirAvg,status,SpdAvg,
2009-05-26, 00:00:04,VALID,1007.82,VALID,0,VALID,89.9534,VALID,0.105969,VALID,24.686,VALID,337,VALID,0,
2009-05-26, 00:01:04,VALID,1007.81,VALID,0,VALID,89.9686,VALID,0,VALID,24.6489,VALID,337,VALID,0,
2009-05-26, 00:02:04,VALID,1007.82,VALID,0,VALID,89.9686,VALID,0,VALID,24.6489,VALID,337,VALID,0,
2009-05-26, 00:03:04,VALID,1007.82,VALID,0,VALID,89.9534,VALID,0,VALID,24.6294,VALID,337,VALID,0,
2009-05-26, 00:04:04,VALID,1007.82,VALID,0,VALID,89.9686,VALID,0,VALID,24.6081,VALID,337,VALID,0,
2009-05-26, 00:05:04,VALID,1007.81,VALID,0,VALID,89.9686,VALID,0,VALID,24.6276,VALID,337,VALID,0,
2009-05-26, 00:06:04,VALID,1007.77,VALID,0,VALID,89.961,VALID,0,VALID,24.6489,VALID,337,VALID,0,
2009-05-26, 00:07:04,VALID,1007.74,VALID,0,VALID,89.9839,VALID,0,VALID,24.6081,VALID,337,VALID,0,
2009-05-26, 00:08:04,VALID,1007.73,VALID,0,VALID,89.9686,VALID,0,VALID,24.6276,VALID,337,VALID,0,
2009-05-26, 00:09:04,VALID,1007.72,VALID,0,VALID,89.9839,VALID,0,VALID,24.6081,VALID,337,VALID,0,
2009-05-26, 00:10:04,VALID,1007.72,VALID,0,VALID,89.9763,VALID,0,VALID,24.6099,VALID,337,VALID,0,
2009-05-26, 00:11:04,VALID,1007.72,VALID,0,VALID,89.9915,VALID,0,VALID,24.6099,VALID,337,VALID,0,
2009-05-26, 00:12:04,VALID,1007.71,VALID,0,VALID,89.9839,VALID,0,VALID,24.5886,VALID,337,VALID,0,
2009-05-26, 00:13:04,VALID,1007.71,VALID,0,VALID,89.9991,VALID,0,VALID,24.6099,VALID,337,VALID,0,
2009-05-26, 00:14:04,VALID,1007.68,VALID,0,VALID,89.9915,VALID,0,VALID,24.5886,VALID,337,VALID,0,
2009-05-26, 00:15:04,VALID,1007.69,VALID,0,VALID,89.9839,VALID,0,VALID,24.5905,VALID,337,VALID,0,
2009-05-26, 00:16:04,VALID,1007.64,VALID,0,VALID,89.9991,VALID,0,VALID,24.6099,VALID,337,VALID,0,
2009-05-26, 00:17:04,VALID,1007.63,VALID,0,VALID,89.9991,VALID,0,VALID,24.5905,VALID,337,VALID,0,
2009-05-26, 00:18:04,VALID,1007.61,VALID,0,VALID,90.0068,VALID,0,VALID,24.5905,VALID,337,VALID,0,
2009-05-26, 00:19:04,VALID,1007.58,VALID,0,VALID,90.022,VALID,0,VALID,24.5691,VALID,337,VALID,0,
2009-05-26, 00:20:04,VALID,1007.56,VALID,0,VALID,89.9915,VALID,0,VALID,24.571,VALID,337,VALID,0,
2009-05-26, 00:21:04,VALID,1007.56,VALID,0,VALID,90.0144,VALID,0,VALID,24.571,VALID,337,VALID,0,
2009-05-26, 00:22:04,VALID,1007.56,VALID,0,VALID,90.0068,VALID,0,VALID,24.5496,VALID,337,VALID,0,
2009-05-26, 00:23:04,VALID,1007.53,VALID,0,VALID,89.9991,VALID,0,VALID,24.5106,VALID,337,VALID,0,
2009-05-26, 00:24:04,VALID,1007.52,VALID,0,VALID,90.0068,VALID,0,VALID,24.532,VALID,337,VALID,0,
2009-05-26, 00:25:04,VALID,1007.46,VALID,0,VALID,90.0068,VALID,0,VALID,24.5125,VALID,337,VALID,0,
2009-05-26, 00:26:04,VALID,1007.46,VALID,0,VALID,89.9915,VALID,0,VALID,24.5125,VALID,337,VALID,0,
2009-05-26, 00:27:04,VALID,1007.42,VALID,0,VALID,90.0144,VALID,0,VALID,24.5125,VALID,337,VALID,0,
2009-05-26, 00:28:04,VALID,1007.42,VALID,0,VALID,89.9915,VALID,0,VALID,24.5125,VALID,337,VALID,0,
2009-05-26, 00:29:04,VALID,1007.36,VALID,0,VALID,90.0144,VALID,0,VALID,24.493,VALID,337,VALID,0,
2009-05-26, 00:30:04,VALID,1007.35,VALID,0,VALID,90.022,VALID,0,VALID,24.4717,VALID,337,VALID,0,
2009-05-26, 00:31:04,VALID,1007.33,VALID,0,VALID,90.022,VALID,0.105969,VALID,24.4911,VALID,337,VALID,0,
2009-05-26, 00:32:04,VALID,1007.34,VALID,0,VALID,90.022,VALID,0.105969,VALID,24.4911,VALID,337,VALID,0,
2009-05-26, 00:33:04,VALID,1007.35,VALID,0,VALID,90.0144,VALID,0.105969,VALID,24.4717,VALID,337,VALID,0,
2009-05-26, 00:34:04,VALID,1007.34,VALID,0,VALID,90.022,VALID,0.105969,VALID,24.4717,VALID,337,VALID,0,
2009-05-26, 00:35:04,VALID,1007.34,VALID,0,VALID,90.0296,VALID,0.211938,VALID,24.4503,VALID,337,VALID,0,
2009-05-26, 00:36:04,VALID,1007.34,VALID,0,VALID,90.0296,VALID,0.105969,VALID,24.4522,VALID,337,VALID,0,
2009-05-26, 00:37:04,VALID,1007.37,VALID,0,VALID,90.0296,VALID,0.105969,VALID,24.4308,VALID,337,VALID,0,
2009-05-26, 00:38:04,VALID,1007.37,VALID,0,VALID,90.0296,VALID,0.211938,VALID,24.4113,VALID,337,VALID,0,
2009-05-26, 00:39:04,VALID,1007.33,VALID,0,VALID,90.0602,VALID,0.105969,VALID,24.3919,VALID,337,VALID,0,
2009-05-26, 00:40:04,VALID,1007.31,VALID,0,VALID,90.0373,VALID,0.105969,VALID,24.3919,VALID,337,VALID,0,
2009-05-26, 00:41:04,VALID,1007.29,VALID,0,VALID,90.0373,VALID,0.105969,VALID,24.4132,VALID,337,VALID,0,
2009-05-26, 00:42:04,VALID,1007.28,VALID,0,VALID,90.0525,VALID,0.105969,VALID,24.3937,VALID,337,VALID,0,
2009-05-26, 00:43:04,VALID,1007.25,VALID,0,VALID,90.0296,VALID,0.105969,VALID,24.3919,VALID,337,VALID,0,
2009-05-26, 00:44:04,VALID,1007.27,VALID,0,VALID,90.0449,VALID,0.105969,VALID,24.3937,VALID,337,VALID,0,
2009-05-26, 00:45:04,VALID,1007.24,VALID,0,VALID,90.0602,VALID,0.105969,VALID,24.3919,VALID,337,VALID,0,
2009-05-26, 00:46:04,VALID,1007.25,VALID,0,VALID,90.0602,VALID,0,VALID,24.3547,VALID,337,VALID,0,
2009-05-26, 00:47:04,VALID,1007.23,VALID,0,VALID,90.0602,VALID,0,VALID,24.3566,VALID,337,VALID,0,
2009-05-26, 00:48:04,VALID,1007.23,VALID,0,VALID,90.0678,VALID,0,VALID,24.3158,VALID,337,VALID,0,
2009-05-26, 00:49:04,VALID,1007.22,VALID,0,VALID,90.0754,VALID,0,VALID,24.3371,VALID,337,VALID,0,
2009-05-26, 00:50:04,VALID,1007.2,VALID,0,VALID,90.0602,VALID,0,VALID,24.3371,VALID,337,VALID,0,
2009-05-26, 00:51:04,VALID,1007.18,VALID,0,VALID,90.0907,VALID,0,VALID,24.3371,VALID,337,VALID,0,
2009-05-26, 00:52:04,VALID,1007.21,VALID,0,VALID,90.083,VALID,0,VALID,24.2768,VALID,67,VALID,0,
2009-05-26, 00:53:04,VALID,1007.17,VALID,0,VALID,90.0754,VALID,0,VALID,24.3158,VALID,67,VALID,0,
2009-05-26, 00:54:04,VALID,1007.15,VALID,0,VALID,90.0754,VALID,0,VALID,24.3176,VALID,67,VALID,0,
2009-05-26, 00:55:04,VALID,1007.17,VALID,0,VALID,90.0754,VALID,0,VALID,24.2981,VALID,67,VALID,0,
2009-05-26, 00:56:04,VALID,1007.17,VALID,0,VALID,90.0907,VALID,0,VALID,24.2768,VALID,67,VALID,0,
2009-05-26, 00:57:04,VALID,1007.17,VALID,0,VALID,90.083,VALID,0,VALID,24.2981,VALID,67,VALID,0,
2009-05-26, 00:58:04,VALID,1007.17,VALID,0,VALID,90.083,VALID,0,VALID,24.2981,VALID,67,VALID,0,
2009-05-26, 00:59:04,VALID,1007.17,VALID,0,VALID,90.0983,VALID,0,VALID,24.2786,VALID,67,VALID,0,
2009-05-26, 01:00:04,VALID,1007.15,VALID,0,VALID,90.0983,VALID,0,VALID,24.2768,VALID,67,VALID,0,
2009-05-26, 01:01:04,VALID,1007.17,VALID,0,VALID,90.0983,VALID,0,VALID,24.2981,VALID,67,VALID,0,
2009-05-26, 01:02:04,VALID,1007.16,VALID,0,VALID,90.0907,VALID,0,VALID,24.2768,VALID,67,VALID,0,
2009-05-26, 01:03:04,VALID,1007.19,VALID,0,VALID,90.1135,VALID,0,VALID,24.2786,VALID,67,VALID,0,
2009-05-26, 01:04:04,VALID,1007.18,VALID,0,VALID,90.1059,VALID,0,VALID,24.2573,VALID,67,VALID,0,
2009-05-26, 01:05:04,VALID,1007.18,VALID,0,VALID,90.0983,VALID,0,VALID,24.2786,VALID,67,VALID,0,
2009-05-26, 01:06:04,VALID,1007.17,VALID,0,VALID,90.0983,VALID,0,VALID,24.2786,VALID,67,VALID,0,
2009-05-26, 01:07:04,VALID,1007.14,VALID,0,VALID,90.1212,VALID,0,VALID,24.2981,VALID,67,VALID,0,
2009-05-26, 01:08:04,VALID,1007.16,VALID,0,VALID,90.1135,VALID,0,VALID,24.2786,VALID,67,VALID,0,
2009-05-26, 01:09:04,VALID,1007.15,VALID,0,VALID,90.1059,VALID,0,VALID,24.2591,VALID,67,VALID,0,
2009-05-26, 01:10:04,VALID,1007.11,VALID,0,VALID,90.1059,VALID,0,VALID,24.2786,VALID,67,VALID,0,
2009-05-26, 01:11:04,VALID,1007.13,VALID,0,VALID,90.1212,VALID,0,VALID,24.2591,VALID,67,VALID,0,
2009-05-26, 01:12:04,VALID,1007.08,VALID,0,VALID,90.1059,VALID,0,VALID,24.2591,VALID,67,VALID,0,
2009-05-26, 01:13:04,VALID,1007.05,VALID,0,VALID,90.1212,VALID,0,VALID,24.2396,VALID,67,VALID,0,
2009-05-26, 01:14:04,VALID,1007.04,VALID,0,VALID,90.1059,VALID,0,VALID,24.2396,VALID,67,VALID,0,
2009-05-26, 01:15:04,VALID,1007.01,VALID,0,VALID,90.1135,VALID,0,VALID,24.2396,VALID,67,VALID,0,
2009-05-26, 01:16:04,VALID,1007.01,VALID,0,VALID,90.0983,VALID,0,VALID,24.2202,VALID,67,VALID,0,
2009-05-26, 01:17:04,VALID,1006.98,VALID,0,VALID,90.1135,VALID,0,VALID,24.2396,VALID,67,VALID,0,
2009-05-26, 01:18:04,VALID,1006.97,VALID,0,VALID,90.1212,VALID,0,VALID,24.2183,VALID,67,VALID,0,
2009-05-26, 01:19:04,VALID,1006.96,VALID,0,VALID,90.1059,VALID,0,VALID,24.2396,VALID,67,VALID,0,
2009-05-26, 01:20:04,VALID,1006.96,VALID,0,VALID,90.1135,VALID,0,VALID,24.2183,VALID,67,VALID,0,
2009-05-26, 01:21:04,VALID,1006.96,VALID,0,VALID,90.1059,VALID,0,VALID,24.1988,VALID,67,VALID,0,
2009-05-26, 01:22:04,VALID,1006.95,VALID,0,VALID,90.1212,VALID,0,VALID,24.2202,VALID,67,VALID,0,
2009-05-26, 01:23:04,VALID,1006.94,VALID,0,VALID,90.1135,VALID,0,VALID,24.1988,VALID,72,VALID,0,
2009-05-26, 01:24:04,VALID,1007,VALID,0,VALID,90.0983,VALID,0,VALID,24.1793,VALID,72,VALID,0,
2009-05-26, 01:25:04,VALID,1006.98,VALID,0,VALID,90.0983,VALID,0,VALID,24.1812,VALID,72,VALID,0,
2009-05-26, 01:26:04,VALID,1006.97,VALID,0,VALID,90.0907,VALID,0,VALID,24.1812,VALID,72,VALID,0,
2009-05-26, 01:27:04,VALID,1006.96,VALID,0,VALID,90.0907,VALID,0,VALID,24.1617,VALID,72,VALID,0,
2009-05-26, 01:28:04,VALID,1006.95,VALID,0,VALID,90.1059,VALID,0,VALID,24.1599,VALID,72,VALID,0,
2009-05-26, 01:29:04,VALID,1006.96,VALID,0,VALID,90.0983,VALID,0,VALID,24.1404,VALID,72,VALID,0,
2009-05-26, 01:30:04,VALID,1006.94,VALID,0,VALID,90.1059,VALID,0,VALID,24.1422,VALID,88,VALID,0,
2009-05-26, 01:31:04,VALID,1006.93,VALID,0,VALID,90.0983,VALID,0.105969,VALID,24.1191,VALID,91,VALID,0,
2009-05-26, 01:32:04,VALID,1006.9,VALID,0,VALID,90.0983,VALID,0.105969,VALID,24.1209,VALID,91,VALID,0,
2009-05-26, 01:33:04,VALID,1006.93,VALID,0,VALID,90.0983,VALID,0.105969,VALID,24.1209,VALID,91,VALID,0,
2009-05-26, 01:34:04,VALID,1006.93,VALID,0,VALID,90.0907,VALID,0.105969,VALID,24.1209,VALID,91,VALID,0,
2009-05-26, 01:35:04,VALID,1006.93,VALID,0,VALID,90.0983,VALID,0.105969,VALID,24.1209,VALID,91,VALID,0,
2009-05-26, 01:36:04,VALID,1006.92,VALID,0,VALID,90.0602,VALID,0.105969,VALID,24.1209,VALID,91,VALID,0,
2009-05-26, 01:37:04,VALID,1006.92,VALID,0,VALID,90.0678,VALID,0.105969,VALID,24.1014,VALID,91,VALID,0,
2009-05-26, 01:38:04,VALID,1006.9,VALID,0,VALID,90.0602,VALID,0.105969,VALID,24.0606,VALID,91,VALID,0,
2009-05-26, 01:39:04,VALID,1006.91,VALID,0,VALID,90.0525,VALID,0,VALID,24.0624,VALID,91,VALID,0,
2009-05-26, 01:40:04,VALID,1006.92,VALID,0,VALID,90.0525,VALID,0.105969,VALID,24.0411,VALID,91,VALID,0,
2009-05-26, 01:41:04,VALID,1006.91,VALID,0,VALID,90.0296,VALID,0.105969,VALID,24.0624,VALID,91,VALID,0,
2009-05-26, 01:42:04,VALID,1006.91,VALID,0,VALID,90.0144,VALID,0.105969,VALID,24.0429,VALID,91,VALID,0,
2009-05-26, 01:43:04,VALID,1006.92,VALID,0,VALID,90.0068,VALID,0.105969,VALID,24.0429,VALID,91,VALID,0,
2009-05-26, 01:44:04,VALID,1006.94,VALID,0,VALID,89.9915,VALID,0.105969,VALID,24.0235,VALID,91,VALID,0,
2009-05-26, 01:45:04,VALID,1006.93,VALID,0,VALID,89.9991,VALID,0.105969,VALID,24.0022,VALID,91,VALID,0,
2009-05-26, 01:46:04,VALID,1006.93,VALID,0,VALID,89.9839,VALID,0,VALID,23.9845,VALID,91,VALID,0,
2009-05-26, 01:47:04,VALID,1006.93,VALID,0,VALID,89.9763,VALID,0,VALID,23.9845,VALID,91,VALID,0,
2009-05-26, 01:48:04,VALID,1006.92,VALID,0,VALID,89.9686,VALID,0,VALID,23.9845,VALID,91,VALID,0,
2009-05-26, 01:49:04,VALID,1006.9,VALID,0,VALID,89.9763,VALID,0,VALID,23.9845,VALID,91,VALID,0,
2009-05-26, 01:50:04,VALID,1006.91,VALID,0,VALID,89.9381,VALID,0,VALID,24.0058,VALID,91,VALID,0,
2009-05-26, 01:51:04,VALID,1006.9,VALID,0,VALID,89.9534,VALID,0.105969,VALID,23.9845,VALID,91,VALID,0,
2009-05-26, 01:52:04,VALID,1006.9,VALID,0,VALID,89.9534,VALID,0,VALID,23.9863,VALID,91,VALID,0,
2009-05-26, 01:53:04,VALID,1006.89,VALID,0,VALID,89.9686,VALID,0,VALID,24.0058,VALID,90,VALID,0,
2009-05-26, 01:54:04,VALID,1006.88,VALID,0,VALID,89.9534,VALID,0,VALID,23.965,VALID,62,VALID,0,
2009-05-26, 01:55:04,VALID,1006.87,VALID,0,VALID,89.9381,VALID,0,VALID,23.9863,VALID,62,VALID,0,
2009-05-26, 01:56:04,VALID,1006.87,VALID,0,VALID,89.9458,VALID,0,VALID,24.0058,VALID,49,VALID,0,
2009-05-26, 01:57:04,VALID,1006.88,VALID,0,VALID,89.9534,VALID,0,VALID,24.0058,VALID,50,VALID,0,
2009-05-26, 01:58:04,VALID,1006.87,VALID,0,VALID,89.9229,VALID,0,VALID,23.9863,VALID,50,VALID,0,
2009-05-26, 01:59:04,VALID,1006.88,VALID,0,VALID,89.9305,VALID,0,VALID,23.9668,VALID,50,VALID,0,
2009-05-26, 02:00:04,VALID,1006.88,VALID,0,VALID,89.9153,VALID,0,VALID,23.9668,VALID,50,VALID,0,
2009-05-26, 02:01:04,VALID,1006.89,VALID,0,VALID,89.9229,VALID,0,VALID,23.9455,VALID,50,VALID,0,
2009-05-26, 02:02:04,VALID,1006.86,VALID,0,VALID,89.9153,VALID,0,VALID,23.9668,VALID,50,VALID,0,
2009-05-26, 02:03:04,VALID,1006.86,VALID,0,VALID,89.9153,VALID,0,VALID,23.9473,VALID,50,VALID,0,
2009-05-26, 02:04:04,VALID,1006.85,VALID,0,VALID,89.9076,VALID,0,VALID,23.9473,VALID,50,VALID,0,
2009-05-26, 02:05:04,VALID,1006.84,VALID,0,VALID,89.9153,VALID,0,VALID,23.9278,VALID,50,VALID,0,
2009-05-26, 02:06:04,VALID,1006.83,VALID,0,VALID,89.8924,VALID,0,VALID,23.9278,VALID,50,VALID,0,
2009-05-26, 02:07:04,VALID,1006.84,VALID,0,VALID,89.8771,VALID,0,VALID,23.9084,VALID,50,VALID,0,
2009-05-26, 02:08:04,VALID,1006.84,VALID,0,VALID,89.8924,VALID,0,VALID,23.9084,VALID,50,VALID,0,
2009-05-26, 02:09:04,VALID,1006.8,VALID,0,VALID,89.8695,VALID,0,VALID,23.8871,VALID,50,VALID,0,
2009-05-26, 02:10:04,VALID,1006.8,VALID,0,VALID,89.8848,VALID,0,VALID,23.8694,VALID,50,VALID,0,
2009-05-26, 02:11:04,VALID,1006.79,VALID,0,VALID,89.8924,VALID,0,VALID,23.8889,VALID,50,VALID,0,
2009-05-26, 02:12:04,VALID,1006.8,VALID,0,VALID,89.8771,VALID,0,VALID,23.8694,VALID,44,VALID,0,
2009-05-26, 02:13:04,VALID,1006.81,VALID,0,VALID,89.8619,VALID,0,VALID,23.8499,VALID,30,VALID,0,
2009-05-26, 02:14:04,VALID,1006.82,VALID,0,VALID,89.8771,VALID,0,VALID,23.8286,VALID,355,VALID,0,
2009-05-26, 02:15:04,VALID,1006.81,VALID,0,VALID,89.8771,VALID,0,VALID,23.8499,VALID,355,VALID,0,
2009-05-26, 02:16:04,VALID,1006.82,VALID,0,VALID,89.8619,VALID,0,VALID,23.8304,VALID,355,VALID,0,
2009-05-26, 02:17:04,VALID,1006.82,VALID,0,VALID,89.8543,VALID,0,VALID,23.8109,VALID,355,VALID,0,
2009-05-26, 02:18:04,VALID,1006.82,VALID,0,VALID,89.8466,VALID,0,VALID,23.7701,VALID,355,VALID,0,
2009-05-26, 02:19:04,VALID,1006.82,VALID,0,VALID,89.8466,VALID,0,VALID,23.7525,VALID,355,VALID,0,
2009-05-26, 02:20:04,VALID,1006.79,VALID,0,VALID,89.839,VALID,0,VALID,23.7525,VALID,355,VALID,0,
2009-05-26, 02:21:04,VALID,1006.77,VALID,0,VALID,89.8314,VALID,0,VALID,23.733,VALID,355,VALID,0,
2009-05-26, 02:22:04,VALID,1006.81,VALID,0,VALID,89.8466,VALID,0,VALID,23.733,VALID,355,VALID,0,
2009-05-26, 02:23:04,VALID,1006.81,VALID,0,VALID,89.8314,VALID,0,VALID,23.6922,VALID,355,VALID,0,
2009-05-26, 02:24:04,VALID,1006.79,VALID,0,VALID,89.839,VALID,0,VALID,23.7135,VALID,355,VALID,0,
2009-05-26, 02:25:04,VALID,1006.8,VALID,0,VALID,89.8466,VALID,0,VALID,23.6922,VALID,355,VALID,0,
2009-05-26, 02:26:04,VALID,1006.82,VALID,0,VALID,89.8543,VALID,0,VALID,23.6727,VALID,355,VALID,0,
2009-05-26, 02:27:04,VALID,1006.8,VALID,0,VALID,89.8466,VALID,0,VALID,23.694,VALID,355,VALID,0,
2009-05-26, 02:28:04,VALID,1006.83,VALID,0,VALID,89.839,VALID,0,VALID,23.694,VALID,355,VALID,0,
2009-05-26, 02:29:04,VALID,1006.78,VALID,0,VALID,89.8619,VALID,0,VALID,23.694,VALID,355,VALID,0,
2009-05-26, 02:30:04,VALID,1006.82,VALID,0,VALID,89.8619,VALID,0,VALID,23.694,VALID,355,VALID,0,
2009-05-26, 02:31:04,VALID,1006.77,VALID,0,VALID,89.8771,VALID,0.105969,VALID,23.6922,VALID,355,VALID,0,
2009-05-26, 02:32:04,VALID,1006.77,VALID,0,VALID,89.8924,VALID,0.105969,VALID,23.7117,VALID,355,VALID,0,
2009-05-26, 02:33:04,VALID,1006.74,VALID,0,VALID,89.8848,VALID,0.105969,VALID,23.6922,VALID,355,VALID,0,
2009-05-26, 02:34:04,VALID,1006.71,VALID,0,VALID,89.9076,VALID,0.105969,VALID,23.6727,VALID,355,VALID,0,
2009-05-26, 02:35:04,VALID,1006.68,VALID,0,VALID,89.9076,VALID,0.105969,VALID,23.6727,VALID,355,VALID,0,
2009-05-26, 02:36:04,VALID,1006.71,VALID,0,VALID,89.9153,VALID,0.105969,VALID,23.6515,VALID,355,VALID,0,
2009-05-26, 02:37:04,VALID,1006.68,VALID,0,VALID,89.9076,VALID,0.105969,VALID,23.6727,VALID,355,VALID,0,
2009-05-26, 02:38:04,VALID,1006.68,VALID,0,VALID,89.9076,VALID,0.105969,VALID,23.6532,VALID,355,VALID,0,
2009-05-26, 02:39:04,VALID,1006.66,VALID,0,VALID,89.9305,VALID,0.105969,VALID,23.6125,VALID,355,VALID,0,
2009-05-26, 02:40:04,VALID,1006.66,VALID,0,VALID,89.9458,VALID,0.105969,VALID,23.6338,VALID,355,VALID,0,
2009-05-26, 02:41:04,VALID,1006.66,VALID,0,VALID,89.9534,VALID,0.105969,VALID,23.6125,VALID,355,VALID,0,
2009-05-26, 02:42:04,VALID,1006.66,VALID,0,VALID,89.961,VALID,0.105969,VALID,23.6143,VALID,355,VALID,0,
2009-05-26, 02:43:04,VALID,1006.69,VALID,0,VALID,89.9534,VALID,0.105969,VALID,23.6338,VALID,355,VALID,0,
2009-05-26, 02:44:04,VALID,1006.66,VALID,0,VALID,89.9839,VALID,0.105969,VALID,23.6143,VALID,355,VALID,0,
2009-05-26, 02:45:04,VALID,1006.67,VALID,0,VALID,89.9458,VALID,0.105969,VALID,23.6338,VALID,355,VALID,0,
2009-05-26, 02:46:04,VALID,1006.64,VALID,0,VALID,89.9915,VALID,0,VALID,23.6356,VALID,355,VALID,0,
2009-05-26, 02:47:04,VALID,1006.68,VALID,0,VALID,89.9839,VALID,0,VALID,23.6356,VALID,355,VALID,0,
2009-05-26, 02:48:04,VALID,1006.68,VALID,0,VALID,89.9763,VALID,0,VALID,23.6143,VALID,355,VALID,0,
2009-05-26, 02:49:04,VALID,1006.64,VALID,0,VALID,89.9915,VALID,0,VALID,23.6161,VALID,355,VALID,0,
2009-05-26, 02:50:04,VALID,1006.66,VALID,0,VALID,89.9915,VALID,0,VALID,23.6161,VALID,355,VALID,0,
2009-05-26, 02:51:04,VALID,1006.68,VALID,0,VALID,89.9991,VALID,0,VALID,23.6161,VALID,355,VALID,0,
2009-05-26, 02:52:04,VALID,1006.68,VALID,0,VALID,90.0068,VALID,0,VALID,23.6161,VALID,355,VALID,0,
2009-05-26, 02:53:04,VALID,1006.67,VALID,0,VALID,90.022,VALID,0,VALID,23.6161,VALID,355,VALID,0,
2009-05-26, 02:54:04,VALID,1006.65,VALID,0,VALID,90.022,VALID,0,VALID,23.6161,VALID,355,VALID,0,
2009-05-26, 02:55:04,VALID,1006.66,VALID,0,VALID,90.0144,VALID,0,VALID,23.5948,VALID,355,VALID,0,
2009-05-26, 02:56:04,VALID,1006.63,VALID,0,VALID,90.0373,VALID,0,VALID,23.6161,VALID,355,VALID,0,
2009-05-26, 02:57:04,VALID,1006.64,VALID,0,VALID,90.0373,VALID,0,VALID,23.6161,VALID,355,VALID,0,
2009-05-26, 02:58:04,VALID,1006.65,VALID,0,VALID,90.0678,VALID,0,VALID,23.5948,VALID,355,VALID,0,
2009-05-26, 02:59:04,VALID,1006.67,VALID,0,VALID,90.0602,VALID,0,VALID,23.6356,VALID,355,VALID,0,
2009-05-26, 03:00:04,VALID,1006.7,VALID,0,VALID,90.0602,VALID,0,VALID,23.6143,VALID,355,VALID,0,
2009-05-26, 03:01:04,VALID,1006.7,VALID,0,VALID,90.0907,VALID,0,VALID,23.6356,VALID,355,VALID,0,
2009-05-26, 03:02:04,VALID,1006.73,VALID,0,VALID,90.0907,VALID,0.105969,VALID,23.5948,VALID,355,VALID,0,
2009-05-26, 03:03:04,VALID,1006.71,VALID,0,VALID,90.0907,VALID,0.105969,VALID,23.6143,VALID,355,VALID,0,
2009-05-26, 03:04:04,VALID,1006.76,VALID,0,VALID,90.0907,VALID,0,VALID,23.6356,VALID,355,VALID,0,
2009-05-26, 03:05:04,VALID,1006.75,VALID,0,VALID,90.083,VALID,0,VALID,23.5966,VALID,355,VALID,0,
2009-05-26, 03:06:04,VALID,1006.74,VALID,0,VALID,90.1059,VALID,0,VALID,23.5363,VALID,355,VALID,0,
2009-05-26, 03:07:04,VALID,1006.74,VALID,0,VALID,90.0907,VALID,0.105969,VALID,23.4974,VALID,355,VALID,0,
2009-05-26, 03:08:04,VALID,1006.72,VALID,0,VALID,90.083,VALID,0,VALID,23.5186,VALID,355,VALID,0,
2009-05-26, 03:09:04,VALID,1006.75,VALID,0,VALID,90.0983,VALID,0,VALID,23.4974,VALID,355,VALID,0,
2009-05-26, 03:10:04,VALID,1006.73,VALID,0,VALID,90.083,VALID,0.105969,VALID,23.5169,VALID,355,VALID,0,
2009-05-26, 03:11:04,VALID,1006.71,VALID,0,VALID,90.1212,VALID,0.105969,VALID,23.5576,VALID,355,VALID,0,
2009-05-26, 03:12:04,VALID,1006.71,VALID,0,VALID,90.1288,VALID,0,VALID,23.5363,VALID,355,VALID,0,
2009-05-26, 03:13:04,VALID,1006.72,VALID,0,VALID,90.1288,VALID,0,VALID,23.5771,VALID,355,VALID,0,
2009-05-26, 03:14:04,VALID,1006.75,VALID,0,VALID,90.1288,VALID,0,VALID,23.5558,VALID,355,VALID,0,
2009-05-26, 03:15:04,VALID,1006.73,VALID,0,VALID,90.1517,VALID,0,VALID,23.5558,VALID,355,VALID,0,
2009-05-26, 03:16:04,VALID,1006.74,VALID,0,VALID,90.1364,VALID,0,VALID,23.5771,VALID,355,VALID,0,
2009-05-26, 03:17:04,VALID,1006.76,VALID,0,VALID,90.1517,VALID,0.105969,VALID,23.5576,VALID,355,VALID,0,
2009-05-26, 03:18:04,VALID,1006.76,VALID,0,VALID,90.1745,VALID,0,VALID,23.5576,VALID,355,VALID,0,
2009-05-26, 03:19:04,VALID,1006.77,VALID,0,VALID,90.1669,VALID,0.105969,VALID,23.5363,VALID,355,VALID,0,
2009-05-26, 03:20:04,VALID,1006.8,VALID,0,VALID,90.1593,VALID,0,VALID,23.5363,VALID,355,VALID,0,
2009-05-26, 03:21:04,VALID,1006.82,VALID,0,VALID,90.1745,VALID,0,VALID,23.5381,VALID,355,VALID,0,
2009-05-26, 03:22:04,VALID,1006.82,VALID,0,VALID,90.1898,VALID,0,VALID,23.5381,VALID,355,VALID,0,
2009-05-26, 03:23:04,VALID,1006.87,VALID,0,VALID,90.1669,VALID,0,VALID,23.5381,VALID,355,VALID,0,
2009-05-26, 03:24:04,VALID,1006.85,VALID,0,VALID,90.1974,VALID,0,VALID,23.5186,VALID,355,VALID,0,
2009-05-26, 03:25:04,VALID,1006.86,VALID,0,VALID,90.1745,VALID,0,VALID,23.5381,VALID,355,VALID,0,
2009-05-26, 03:26:04,VALID,1006.88,VALID,0,VALID,90.1745,VALID,0,VALID,23.5381,VALID,355,VALID,0,
2009-05-26, 03:27:04,VALID,1006.88,VALID,0,VALID,90.1974,VALID,0,VALID,23.5169,VALID,355,VALID,0,
2009-05-26, 03:28:04,VALID,1006.87,VALID,0,VALID,90.1822,VALID,0,VALID,23.5186,VALID,355,VALID,0,
2009-05-26, 03:29:04,VALID,1006.86,VALID,0,VALID,90.1974,VALID,0,VALID,23.4974,VALID,355,VALID,0,
2009-05-26, 03:30:04,VALID,1006.87,VALID,0,VALID,90.1898,VALID,0,VALID,23.4992,VALID,355,VALID,0,
2009-05-26, 03:31:04,VALID,1006.87,VALID,0,VALID,90.205,VALID,0,VALID,23.4779,VALID,355,VALID,0,
2009-05-26, 03:32:04,VALID,1006.87,VALID,0,VALID,90.1974,VALID,0,VALID,23.5186,VALID,355,VALID,0,
2009-05-26, 03:33:04,VALID,1006.88,VALID,0,VALID,90.2127,VALID,0,VALID,23.4797,VALID,355,VALID,0,
2009-05-26, 03:34:04,VALID,1006.89,VALID,0,VALID,90.205,VALID,0,VALID,23.4797,VALID,355,VALID,0,
2009-05-26, 03:35:04,VALID,1006.93,VALID,0,VALID,90.205,VALID,0,VALID,23.4602,VALID,355,VALID,0,
2009-05-26, 03:36:04,VALID,1006.92,VALID,0,VALID,90.2127,VALID,0,VALID,23.4584,VALID,355,VALID,0,
2009-05-26, 03:37:04,VALID,1006.92,VALID,0,VALID,90.2127,VALID,0,VALID,23.4602,VALID,355,VALID,0,
2009-05-26, 03:38:04,VALID,1006.93,VALID,0,VALID,90.2279,VALID,0,VALID,23.4602,VALID,355,VALID,0,
2009-05-26, 03:39:04,VALID,1006.94,VALID,0,VALID,90.2355,VALID,0,VALID,23.4602,VALID,355,VALID,0,
2009-05-26, 03:40:04,VALID,1006.93,VALID,0,VALID,90.2279,VALID,0,VALID,23.4602,VALID,355,VALID,0,
2009-05-26, 03:41:04,VALID,1006.93,VALID,0,VALID,90.2203,VALID,0,VALID,23.4797,VALID,355,VALID,0,
2009-05-26, 03:42:04,VALID,1006.94,VALID,0,VALID,90.205,VALID,0,VALID,23.4797,VALID,355,VALID,0,
2009-05-26, 03:43:04,VALID,1006.95,VALID,0,VALID,90.2203,VALID,0,VALID,23.4992,VALID,355,VALID,0,
2009-05-26, 03:44:04,VALID,1006.98,VALID,0,VALID,90.2508,VALID,0,VALID,23.4797,VALID,355,VALID,0,
2009-05-26, 03:45:04,VALID,1006.98,VALID,0,VALID,90.2355,VALID,0,VALID,23.4797,VALID,355,VALID,0,
2009-05-26, 03:46:04,VALID,1006.96,VALID,0,VALID,90.2432,VALID,0,VALID,23.4797,VALID,355,VALID,0,
2009-05-26, 03:47:04,VALID,1007,VALID,0,VALID,90.2279,VALID,0,VALID,23.4797,VALID,355,VALID,0,
2009-05-26, 03:48:04,VALID,1007.01,VALID,0,VALID,90.2508,VALID,0.105969,VALID,23.4992,VALID,355,VALID,0,
2009-05-26, 03:49:04,VALID,1007,VALID,0,VALID,90.2432,VALID,0,VALID,23.4797,VALID,355,VALID,0,
2009-05-26, 03:50:04,VALID,1007.02,VALID,0,VALID,90.2508,VALID,0,VALID,23.4992,VALID,355,VALID,0,
2009-05-26, 03:51:04,VALID,1007.04,VALID,0,VALID,90.2889,VALID,0,VALID,23.4992,VALID,355,VALID,0,
2009-05-26, 03:52:04,VALID,1007.01,VALID,0,VALID,90.2432,VALID,0,VALID,23.4797,VALID,355,VALID,0,
2009-05-26, 03:53:04,VALID,1007.04,VALID,0,VALID,90.266,VALID,0,VALID,23.4779,VALID,355,VALID,0,
2009-05-26, 03:54:04,VALID,1007.02,VALID,0,VALID,90.266,VALID,0,VALID,23.4992,VALID,355,VALID,0,
2009-05-26, 03:55:04,VALID,1007.05,VALID,0,VALID,90.266,VALID,0,VALID,23.4584,VALID,355,VALID,0,
2009-05-26, 03:56:04,VALID,1007.04,VALID,0,VALID,90.2889,VALID,0,VALID,23.4992,VALID,355,VALID,0,
2009-05-26, 03:57:04,VALID,1007.01,VALID,0,VALID,90.2889,VALID,0,VALID,23.5186,VALID,355,VALID,0,